カタログに戻る

SL-12 R/B(2)

運用中GEO
NORAD 34265·ROCKET BODY·🇷🇺 Russia

打ち上げ Feb 28, 2009 から Baikonur Cosmodrome

Loading…

TLE

最新Source: Space-Track

元期: Sep 14, 2026, 07:30 UTC

1 34265U 09010B   26257.31269115 -.00000351  00000-0  00000-0 0  9990
2 34265  12.2772  40.7749 0002178 291.3471 248.0402  1.00003911 64082

AllMySatでSL-12 R/B(2)をリアルタイム追跡

Download on the App Store